FENGYUN 1C DEB, 29971

Orbit data source: Space-Track

FENGYUN 1C DEB, 29971 is space debris in SSO originally from a launch on Mon, 10 May 1999 UTC launched from the Taiyaun Space Center, China (TSC). Fengyun 1C debris stems from the Chinese weather satellite Fengyun-1C, which was intentionally destroyed by a Chinese anti-satellite missile in 2007. This event dramatically increased the amount of space debris, with thousands of trackable fragments posing hazards to satellites and human spaceflight. The Fengyun 1C debris cloud has become a focal point in discussions about space sustainability and the need for international regulations to prevent the creation of new debris.

Loading next visibility...
Identifier
29971, 1999-025KV
Orbit
SSO
Country
Flag of CNCN / PRC
Related business
Manufacturer
Unknown
Mission
Spacecraft
Bus & Motor
Unknown
Mass
Unknown
Launch date (UTC)
1999-05-10 (27 years ago)
Launch vehicle
Unknown
Launch site
Taiyaun Space Center, China (TSC)
Object type
Payload
Rocket body
Debris
Shape & HBR
Unknown shape, 0.1 m
Radar Cross Section
Medium (>0.1 m² and <1 m²)

Expand to show TLE details & history
Last TLE update: 2 days ago

TLE from 2 days ago
0 FENGYUN 1C DEB
1 29971U 99025KV  26235.56486899  .00000987  00000-0  49311-3 0  9991
2 29971  98.6558 274.5690 0023064 155.3428   1.8371 14.18915876  9365
Epoch: 2026-08-23T13:33Z
TLE epoch observation values (Epoch: 2026-08-23T13:33:24.680Z)
Latitude
22.55471°
Longitude
-77.03713°
Altitude
815.146 km
Speed
7.456 km/s
True Right ascension
06h 32m 41s
True Declination
22° 26' 03"
Sunlit
Object was in daylight at epoch
Visualization orbit readout
Latitude
Unknown
Longitude
Unknown
Altitude
Unknown
Speed
Unknown
Apparent Right ascension
Unknown
Apparent Declination
Unknown
Sunlit
N/A
Visualization observer readout
Local Sidereal Time
18:19:18
Azimuth
Unknown
Elevation
Unknown
Doppler factor
Unknown
Orbital elements
Apogee altitude
842.795 km
Perigee altitude
809.563 km
Semi-major axis
7,204.316 km
Eccentricity
0.00231
Inclination
98.6558°
RAAN
274.569°
Arg. of periapsis
155.3428°
True anomaly
1.8456°
Mean anomaly
1.8371°
Eccentric anomaly
1.84135°
Mean motion
3.54939 °/min
Orbital period
101.43 mins
BSTAR
0.00049311
Loading maneuver chart data...
Computing Atmospheric mass density...

Documentation

Showing up to 5 results
|